| time (UTC) | temp C | wind direction | speed KPH | gust KPH | rain 1hr cm | rain 24hr cm | rain mn cm | humidity % | barometer mb |
| 20260507085836 | 15 | 67 | 0.0 | 0.0 | 0.00 | 0.00 | 0.00 | 71 | 1006.4 |
| 20260507085336 | 15 | 45 | 0.0 | 0.0 | 0.00 | 0.00 | 0.00 | 71 | 1006.5 |
| 20260507084836 | 15 | 22 | 0.0 | 0.0 | 0.00 | 0.00 | 0.00 | 72 | 1006.7 |
| 20260507084336 | 15 | 67 | 0.0 | 3.2 | 0.00 | 0.00 | 0.00 | 74 | 1006.7 |
| 20260507083836 | 15 | 90 | 1.6 | 1.6 | 0.00 | 0.00 | 0.00 | 76 | 1006.6 |
| 20260507083336 | 15 | 45 | 0.0 | 0.0 | 0.00 | 0.00 | 0.00 | 77 | 1006.6 |
| 20260507082836 | 14 | 292 | 0.0 | 0.0 | 0.00 | 0.00 | 0.00 | 77 | 1006.6 |
| 20260507082336 | 15 | 337 | 0.0 | 0.0 | 0.00 | 0.00 | 0.00 | 77 | 1006.7 |
| 20260507081836 | 13 | 0 | 0.0 | 0.0 | 0.00 | 0.00 | 0.00 | 79 | 1006.8 |
| 20260507081535 | 13 | 0 | 0.0 | 0.0 | 0.00 | 0.00 | 0.00 | 78 | 1006.7 |
| 20260507081337 | 13 | 0 | 0.0 | 0.0 | 0.00 | 0.00 | 0.00 | 78 | 1006.7 |
| 20260507080836 | 13 | 135 | 0.0 | 0.0 | 0.00 | 0.00 | 0.00 | 79 | 1006.7 |
| 20260507080336 | 13 | 135 | 0.0 | 0.0 | 0.00 | 0.00 | 0.00 | 79 | 1006.8 |
| 20260507075836 | 12 | 157 | 0.0 | 0.0 | 0.00 | 0.00 | 0.00 | 79 | 1006.7 |
| 20260507075336 | 12 | 135 | 0.0 | 0.0 | 0.00 | 0.00 | 0.00 | 79 | 1006.8 |
| 20260507074836 | 12 | 45 | 0.0 | 0.0 | 0.00 | 0.00 | 0.00 | 79 | 1006.7 |
| 20260507074336 | 11 | 67 | 0.0 | 0.0 | 0.00 | 0.00 | 0.00 | 78 | 1006.7 |
| 20260507073836 | 11 | 90 | 0.0 | 0.0 | 0.00 | 0.00 | 0.00 | 79 | 1006.7 |
| 20260507073337 | 11 | 157 | 0.0 | 0.0 | 0.00 | 0.00 | 0.00 | 78 | 1006.8 |
| 20260507072836 | 11 | 90 | 0.0 | 0.0 | 0.00 | 0.00 | 0.00 | 78 | 1006.7 |
| 20260507072409 | 10 | 45 | 0.0 | 0.0 | 0.00 | 0.00 | 0.00 | 78 | 1006.6 |
| 20260507072337 | 10 | 45 | 0.0 | 0.0 | 0.00 | 0.00 | 0.00 | 78 | 1006.6 |
| 20260507071837 | 10 | 135 | 0.0 | 0.0 | 0.00 | 0.00 | 0.00 | 78 | 1006.7 |
| 20260507071337 | 10 | 292 | 0.0 | 0.0 | 0.00 | 0.00 | 0.00 | 78 | 1006.6 |
| 20260507070837 | 10 | 22 | 0.0 | 0.0 | 0.00 | 0.00 | 0.00 | 78 | 1006.7 |
| 20260507070419 | 9 | 45 | 0.0 | 0.0 | 0.00 | 0.00 | 0.00 | 78 | 1006.7 |
| 20260507070337 | 9 | 45 | 0.0 | 0.0 | 0.00 | 0.00 | 0.00 | 78 | 1006.7 |
| 20260507065837 | 9 | 0 | 0.0 | 0.0 | 0.00 | 0.00 | 0.00 | 78 | 1006.7 |
| 20260507065337 | 9 | 22 | 0.0 | 0.0 | 0.00 | 0.00 | 0.00 | 77 | 1006.6 |
| 20260507064837 | 8 | 67 | 0.0 | 0.0 | 0.00 | 0.00 | 0.00 | 77 | 1006.6 |
| 20260507064337 | 8 | 45 | 0.0 | 0.0 | 0.00 | 0.00 | 0.00 | 76 | 1006.6 |
| 20260507063837 | 8 | 90 | 0.0 | 0.0 | 0.00 | 0.00 | 0.00 | 75 | 1006.6 |
| 20260507063337 | 7 | 67 | 0.0 | 0.0 | 0.00 | 0.00 | 0.00 | 76 | 1006.7 |
| 20260507062837 | 7 | 337 | 0.0 | 0.0 | 0.00 | 0.00 | 0.00 | 76 | 1006.7 |
| 20260507062337 | 7 | 292 | 0.0 | 0.0 | 0.00 | 0.00 | 0.00 | 76 | 1006.7 |
| 20260507061837 | 7 | 157 | 0.0 | 0.0 | 0.00 | 0.00 | 0.00 | 76 | 1006.7 |
| 20260507061337 | 7 | 157 | 0.0 | 0.0 | 0.00 | 0.00 | 0.00 | 75 | 1006.6 |
| 20260507060837 | 7 | 157 | 0.0 | 0.0 | 0.00 | 0.00 | 0.00 | 75 | 1006.7 |
| 20260507060337 | 7 | 157 | 0.0 | 0.0 | 0.00 | 0.00 | 0.00 | 75 | 1006.6 |
| 20260507055837 | 7 | 157 | 0.0 | 0.0 | 0.00 | 0.00 | 0.00 | 75 | 1006.6 |
| 20260507055337 | 7 | 135 | 0.0 | 0.0 | 0.00 | 0.00 | 0.00 | 75 | 1006.6 |
| 20260507054837 | 6 | 157 | 0.0 | 0.0 | 0.00 | 0.00 | 0.00 | 75 | 1006.6 |
| 20260507054337 | 6 | 157 | 0.0 | 1.6 | 0.00 | 0.00 | 0.00 | 75 | 1006.7 |
| 20260507053837 | 6 | 157 | 0.0 | 0.0 | 0.00 | 0.00 | 0.00 | 75 | 1006.5 |
| 20260507053337 | 6 | 180 | 0.0 | 0.0 | 0.00 | 0.00 | 0.00 | 75 | 1006.6 |
| 20260507052837 | 6 | 157 | 0.0 | 0.0 | 0.00 | 0.00 | 0.00 | 75 | 1006.5 |
| 20260507052337 | 6 | 112 | 0.0 | 3.2 | 0.00 | 0.00 | 0.00 | 75 | 1006.5 |
| 20260507051837 | 6 | 90 | 0.0 | 3.2 | 0.00 | 0.00 | 0.00 | 75 | 1006.5 |
| 20260507051337 | 6 | 90 | 0.0 | 0.0 | 0.00 | 0.00 | 0.00 | 75 | 1006.4 |
| 20260507050837 | 6 | 90 | 0.0 | 0.0 | 0.00 | 0.00 | 0.00 | 75 | 1006.4 |
| 20260507050337 | 6 | 67 | 0.0 | 0.0 | 0.00 | 0.00 | 0.00 | 75 | 1006.4 |
| 20260507045837 | 6 | 67 | 0.0 | 0.0 | 0.00 | 0.00 | 0.00 | 75 | 1006.4 |
| 20260507045337 | 6 | 67 | 0.0 | 0.0 | 0.00 | 0.00 | 0.00 | 75 | 1006.3 |
| 20260507044837 | 6 | 112 | 0.0 | 0.0 | 0.00 | 0.00 | 0.00 | 76 | 1006.2 |
| 20260507044337 | 6 | 135 | 0.0 | 0.0 | 0.00 | 0.00 | 0.00 | 76 | 1006.0 |
| 20260507043837 | 6 | 135 | 0.0 | 0.0 | 0.00 | 0.00 | 0.00 | 76 | 1006.0 |
| 20260507043337 | 5 | 135 | 0.0 | 0.0 | 0.00 | 0.00 | 0.00 | 76 | 1005.8 |
| 20260507042837 | 5 | 135 | 0.0 | 0.0 | 0.00 | 0.00 | 0.00 | 76 | 1005.9 |
| 20260507042337 | 6 | 135 | 0.0 | 0.0 | 0.00 | 0.00 | 0.00 | 76 | 1005.8 |
| 20260507041837 | 6 | 135 | 0.0 | 0.0 | 0.00 | 0.00 | 0.00 | 76 | 1005.8 |
| 20260507041337 | 6 | 112 | 0.0 | 0.0 | 0.00 | 0.00 | 0.00 | 76 | 1005.7 |
| 20260507040837 | 6 | 67 | 0.0 | 0.0 | 0.00 | 0.00 | 0.00 | 76 | 1005.8 |
| 20260507040441 | 5 | 90 | 0.0 | 0.0 | 0.00 | 0.00 | 0.00 | 76 | 1005.7 |
| 20260507040337 | 5 | 90 | 0.0 | 0.0 | 0.00 | 0.00 | 0.00 | 76 | 1005.7 |
| 20260507035837 | 5 | 135 | 0.0 | 0.0 | 0.00 | 0.00 | 0.00 | 76 | 1005.8 |
| 20260507035337 | 5 | 135 | 0.0 | 0.0 | 0.00 | 0.00 | 0.00 | 76 | 1005.7 |
| 20260507034837 | 5 | 135 | 0.0 | 0.0 | 0.00 | 0.00 | 0.00 | 76 | 1005.7 |
| 20260507034421 | 5 | 67 | 0.0 | 0.0 | 0.00 | 0.00 | 0.00 | 77 | 1005.7 |
| 20260507034337 | 5 | 67 | 0.0 | 0.0 | 0.00 | 0.00 | 0.00 | 77 | 1005.7 |
| 20260507033837 | 5 | 67 | 0.0 | 0.0 | 0.00 | 0.00 | 0.00 | 77 | 1005.7 |
| 20260507033337 | 5 | 90 | 0.0 | 0.0 | 0.00 | 0.00 | 0.00 | 77 | 1005.7 |
| 20260507032837 | 5 | 90 | 0.0 | 0.0 | 0.00 | 0.00 | 0.00 | 77 | 1005.6 |
| 20260507032337 | 5 | 90 | 0.0 | 0.0 | 0.00 | 0.00 | 0.00 | 77 | 1005.6 |
| 20260507031837 | 5 | 90 | 0.0 | 0.0 | 0.00 | 0.00 | 0.00 | 77 | 1005.6 |
| 20260507031337 | 5 | 90 | 0.0 | 0.0 | 0.00 | 0.00 | 0.00 | 77 | 1005.6 |
| 20260507030909 | 5 | 135 | 0.0 | 0.0 | 0.00 | 0.00 | 0.00 | 77 | 1005.6 |
| 20260507030837 | 5 | 135 | 0.0 | 0.0 | 0.00 | 0.00 | 0.00 | 77 | 1005.6 |
| 20260507030337 | 5 | 135 | 0.0 | 0.0 | 0.00 | 0.00 | 0.00 | 77 | 1005.6 |
| 20260507025837 | 5 | 135 | 0.0 | 0.0 | 0.00 | 0.00 | 0.00 | 77 | 1005.6 |
| 20260507025337 | 5 | 135 | 0.0 | 0.0 | 0.00 | 0.00 | 0.00 | 77 | 1005.6 |
| 20260507024837 | 5 | 135 | 0.0 | 0.0 | 0.00 | 0.00 | 0.00 | 77 | 1005.6 |
| 20260507024337 | 5 | 135 | 0.0 | 0.0 | 0.00 | 0.00 | 0.00 | 77 | 1005.6 |
| 20260507023922 | 5 | 135 | 0.0 | 0.0 | 0.00 | 0.00 | 0.00 | 77 | 1005.5 |
| 20260507023837 | 5 | 135 | 0.0 | 0.0 | 0.00 | 0.00 | 0.00 | 77 | 1005.5 |
| 20260507023337 | 5 | 135 | 0.0 | 0.0 | 0.00 | 0.00 | 0.00 | 77 | 1005.5 |
| 20260507022937 | 5 | 67 | 0.0 | 0.0 | 0.00 | 0.00 | 0.00 | 77 | 1005.6 |
| 20260507022837 | 5 | 67 | 0.0 | 0.0 | 0.00 | 0.00 | 0.00 | 77 | 1005.6 |
| 20260507022337 | 5 | 67 | 0.0 | 0.0 | 0.00 | 0.00 | 0.00 | 77 | 1005.5 |
| 20260507021837 | 5 | 67 | 0.0 | 0.0 | 0.00 | 0.00 | 0.00 | 77 | 1005.6 |
| 20260507021337 | 5 | 67 | 0.0 | 0.0 | 0.00 | 0.00 | 0.00 | 77 | 1005.6 |
| 20260507020837 | 5 | 67 | 0.0 | 0.0 | 0.00 | 0.00 | 0.00 | 77 | 1005.5 |
| 20260507020337 | 5 | 67 | 0.0 | 0.0 | 0.00 | 0.00 | 0.00 | 77 | 1005.6 |
| 20260507015837 | 5 | 67 | 0.0 | 0.0 | 0.00 | 0.00 | 0.00 | 77 | 1005.5 |
| 20260507015337 | 5 | 67 | 0.0 | 0.0 | 0.00 | 0.00 | 0.00 | 77 | 1005.3 |
| 20260507014914 | 5 | 67 | 0.0 | 0.0 | 0.00 | 0.00 | 0.00 | 78 | 1005.2 |
| 20260507014837 | 5 | 67 | 0.0 | 0.0 | 0.00 | 0.00 | 0.00 | 78 | 1005.2 |
| 20260507014337 | 5 | 67 | 0.0 | 0.0 | 0.00 | 0.00 | 0.00 | 78 | 1005.3 |
| 20260507013911 | 6 | 135 | 0.0 | 0.0 | 0.00 | 0.00 | 0.00 | 77 | 1005.3 |
| 20260507013837 | 6 | 135 | 0.0 | 0.0 | 0.00 | 0.00 | 0.00 | 77 | 1005.3 |
| 20260507013337 | 5 | 157 | 0.0 | 0.0 | 0.00 | 0.00 | 0.00 | 77 | 1005.5 |
| 20260507012837 | 5 | 157 | 0.0 | 0.0 | 0.00 | 0.00 | 0.00 | 77 | 1005.6 |
| 20260507012337 | 5 | 135 | 0.0 | 0.0 | 0.00 | 0.00 | 0.00 | 77 | 1005.5 |
| 20260507011837 | 5 | 67 | 0.0 | 0.0 | 0.00 | 0.00 | 0.00 | 78 | 1005.5 |
| 20260507011337 | 6 | 67 | 0.0 | 0.0 | 0.00 | 0.00 | 0.00 | 78 | 1005.5 |
| 20260507010837 | 6 | 135 | 0.0 | 0.0 | 0.00 | 0.00 | 0.00 | 77 | 1005.4 |
| 20260507010338 | 6 | 135 | 0.0 | 0.0 | 0.00 | 0.00 | 0.00 | 77 | 1005.6 |
| 20260507005837 | 6 | 135 | 0.0 | 0.0 | 0.00 | 0.00 | 0.00 | 77 | 1005.5 |
| 20260507005548 | 6 | 112 | 0.0 | 0.0 | 0.00 | 0.00 | 0.00 | 78 | 1005.5 |
| 20260507005337 | 6 | 112 | 0.0 | 0.0 | 0.00 | 0.00 | 0.00 | 78 | 1005.5 |
| 20260507004837 | 6 | 112 | 0.0 | 0.0 | 0.00 | 0.00 | 0.00 | 78 | 1005.4 |
| 20260507004337 | 6 | 67 | 0.0 | 0.0 | 0.00 | 0.00 | 0.00 | 78 | 1005.5 |
| 20260507003837 | 6 | 67 | 0.0 | 0.0 | 0.00 | 0.00 | 0.00 | 78 | 1005.5 |
| 20260507003337 | 6 | 135 | 0.0 | 0.0 | 0.00 | 0.00 | 0.00 | 77 | 1005.5 |
| 20260507002837 | 6 | 135 | 0.0 | 0.0 | 0.00 | 0.00 | 0.00 | 77 | 1005.4 |
| 20260507002337 | 6 | 135 | 0.0 | 0.0 | 0.00 | 0.00 | 0.00 | 77 | 1005.4 |
| 20260507001837 | 6 | 135 | 0.0 | 0.0 | 0.00 | 0.00 | 0.00 | 77 | 1005.4 |
| 20260507001337 | 6 | 135 | 0.0 | 0.0 | 0.00 | 0.00 | 0.00 | 77 | 1005.4 |
| 20260507000837 | 7 | 135 | 0.0 | 0.0 | 0.00 | 0.00 | 0.00 | 77 | 1005.3 |
| 20260507000428 | 6 | 45 | 0.0 | 0.0 | 0.00 | 0.00 | 0.00 | 77 | 1005.3 |
| 20260507000337 | 6 | 45 | 0.0 | 0.0 | 0.00 | 0.00 | 0.00 | 77 | 1005.3 |
| 20260506235837 | 6 | 22 | 0.0 | 0.0 | 0.00 | 0.00 | 0.00 | 78 | 1005.4 |
| 20260506235337 | 6 | 22 | 0.0 | 0.0 | 0.00 | 0.00 | 0.00 | 78 | 1005.3 |
| 20260506234915 | 7 | 22 | 0.0 | 0.0 | 0.00 | 0.00 | 0.00 | 78 | 1005.3 |
| 20260506234837 | 7 | 22 | 0.0 | 0.0 | 0.00 | 0.00 | 0.00 | 78 | 1005.3 |
| 20260506234337 | 7 | 45 | 0.0 | 0.0 | 0.00 | 0.00 | 0.00 | 78 | 1005.2 |
| 20260506233837 | 7 | 90 | 0.0 | 0.0 | 0.00 | 0.00 | 0.00 | 78 | 1005.1 |
| 20260506233337 | 7 | 90 | 0.0 | 0.0 | 0.00 | 0.00 | 0.00 | 78 | 1005.2 |
| 20260506232837 | 7 | 90 | 0.0 | 0.0 | 0.00 | 0.00 | 0.00 | 78 | 1005.2 |
| 20260506232337 | 7 | 90 | 0.0 | 0.0 | 0.00 | 0.00 | 0.00 | 78 | 1005.2 |
| 20260506231838 | 7 | 90 | 0.0 | 0.0 | 0.00 | 0.00 | 0.00 | 78 | 1005.2 |
| 20260506231337 | 7 | 90 | 0.0 | 0.0 | 0.00 | 0.00 | 0.00 | 78 | 1005.3 |
| 20260506230837 | 7 | 90 | 0.0 | 0.0 | 0.00 | 0.00 | 0.00 | 78 | 1005.2 |
| 20260506230337 | 7 | 135 | 0.0 | 0.0 | 0.00 | 0.00 | 0.00 | 78 | 1005.3 |
| 20260506225837 | 7 | 135 | 0.0 | 0.0 | 0.00 | 0.00 | 0.00 | 78 | 1005.3 |
| 20260506225337 | 8 | 135 | 0.0 | 0.0 | 0.00 | 0.00 | 0.00 | 78 | 1005.2 |
| 20260506224837 | 8 | 135 | 0.0 | 0.0 | 0.00 | 0.00 | 0.00 | 78 | 1005.2 |
| 20260506224337 | 8 | 135 | 0.0 | 0.0 | 0.00 | 0.00 | 0.00 | 78 | 1005.3 |
| 20260506223837 | 8 | 67 | 0.0 | 0.0 | 0.00 | 0.00 | 0.00 | 78 | 1005.3 |
| 20260506223337 | 8 | 90 | 0.0 | 0.0 | 0.00 | 0.00 | 0.00 | 78 | 1005.3 |
| 20260506222837 | 8 | 67 | 0.0 | 0.0 | 0.00 | 0.00 | 0.00 | 78 | 1005.3 |
| 20260506222337 | 8 | 90 | 0.0 | 0.0 | 0.00 | 0.00 | 0.00 | 78 | 1005.3 |
| 20260506221837 | 8 | 90 | 0.0 | 0.0 | 0.00 | 0.00 | 0.00 | 78 | 1005.3 |
| 20260506221337 | 8 | 67 | 0.0 | 0.0 | 0.00 | 0.00 | 0.00 | 78 | 1005.7 |
| 20260506220837 | 8 | 135 | 0.0 | 0.0 | 0.00 | 0.00 | 0.00 | 78 | 1005.7 |
| 20260506220337 | 8 | 157 | 0.0 | 0.0 | 0.00 | 0.00 | 0.00 | 78 | 1005.7 |
| 20260506215837 | 9 | 135 | 0.0 | 0.0 | 0.00 | 0.00 | 0.00 | 78 | 1005.7 |
| 20260506215337 | 9 | 112 | 0.0 | 0.0 | 0.00 | 7.54 | 0.00 | 78 | 1005.2 |
| 20260506214837 | 9 | 112 | 0.0 | 0.0 | 0.00 | 7.54 | 0.00 | 78 | 1005.1 |
| 20260506214337 | 9 | 135 | 0.0 | 0.0 | 0.00 | 7.54 | 0.00 | 78 | 1005.3 |
| 20260506213838 | 9 | 135 | 0.0 | 0.0 | 0.00 | 7.54 | 0.00 | 78 | 1005.3 |
| 20260506213338 | 9 | 112 | 0.0 | 0.0 | 0.00 | 7.54 | 0.00 | 78 | 1005.2 |
| 20260506212838 | 10 | 112 | 0.0 | 0.0 | 0.00 | 7.54 | 0.00 | 78 | 1005.1 |
| 20260506212338 | 10 | 135 | 0.0 | 0.0 | 0.00 | 7.54 | 0.00 | 78 | 1005.2 |
| 20260506211838 | 10 | 135 | 0.0 | 0.0 | 0.00 | 7.54 | 0.00 | 78 | 1005.2 |
| 20260506211338 | 10 | 67 | 0.0 | 4.8 | 0.00 | 7.54 | 0.00 | 78 | 1005.3 |
| 20260506210838 | 10 | 67 | 4.8 | 9.7 | 0.00 | 7.54 | 0.00 | 78 | 1005.1 |
| 20260506210338 | 10 | 67 | 0.0 | 9.7 | 0.00 | 7.54 | 0.00 | 79 | 1005.1 |
| 20260506205838 | 10 | 45 | 0.0 | 9.7 | 0.00 | 7.54 | 0.00 | 79 | 1005.0 |
| 20260506205338 | 10 | 45 | 11.3 | 12.9 | 0.00 | 7.54 | 0.00 | 79 | 1004.9 |
| 20260506204838 | -25 | 67 | 0.0 | 4.8 | 0.00 | 7.54 | 0.00 | 79 | 1005.1 |
| 20260506204338 | 10 | 112 | 0.0 | 9.7 | 0.00 | 7.54 | 0.00 | 79 | 1004.9 |
| 20260506203838 | 10 | 112 | 4.8 | 11.3 | 0.00 | 7.54 | 0.00 | 79 | 1004.7 |
| 20260506203338 | 10 | 135 | 4.8 | 9.7 | 0.00 | 7.54 | 0.00 | 79 | 1004.7 |
| 20260506202838 | 10 | 135 | 0.0 | 12.9 | 0.00 | 7.54 | 0.00 | 79 | 1004.8 |
| 20260506202338 | 11 | 112 | 6.4 | 11.3 | 0.00 | 7.54 | 0.00 | 79 | 1004.8 |
| 20260506201838 | 11 | 135 | 11.3 | 16.1 | 0.00 | 7.54 | 0.00 | 79 | 1004.8 |
| 20260506201338 | 11 | 157 | 11.3 | 11.3 | 0.00 | 7.54 | 0.00 | 79 | 1004.7 |
| 20260506200838 | 11 | 112 | 0.0 | 4.8 | 0.00 | 7.54 | 0.00 | 79 | 1004.7 |
| 20260506200338 | 11 | 90 | 0.0 | 6.4 | 0.00 | 7.54 | 0.00 | 79 | 1004.7 |
| 20260506195838 | 11 | 112 | 0.0 | 9.7 | 0.00 | 7.54 | 0.00 | 79 | 1004.6 |
| 20260506195338 | 11 | 45 | 0.0 | 0.0 | 0.00 | 7.54 | 0.00 | 79 | 1004.5 |
| 20260506194838 | 11 | 67 | 0.0 | 3.2 | 0.00 | 7.54 | 0.00 | 79 | 1004.4 |
| 20260506194338 | 11 | 180 | 0.0 | 8.0 | 0.00 | 7.54 | 0.00 | 79 | 1004.4 |
| 20260506193838 | 11 | 90 | 3.2 | 14.5 | 0.00 | 7.54 | 0.00 | 79 | 1004.2 |
| 20260506193338 | 12 | 90 | 14.5 | 14.5 | 0.00 | 7.54 | 0.00 | 79 | 1004.0 |
| 20260506192838 | 12 | 45 | 0.0 | 19.3 | 0.00 | 7.54 | 0.00 | 79 | 1003.9 |
| 20260506192338 | 12 | 135 | 9.7 | 14.5 | 0.00 | 7.54 | 0.00 | 79 | 1004.1 |
| 20260506191838 | 12 | 112 | 8.0 | 16.1 | 0.00 | 7.54 | 0.00 | 79 | 1004.0 |
| 20260506191338 | 12 | 157 | 0.0 | 8.0 | 0.00 | 7.54 | 0.00 | 79 | 1003.9 |
| 20260506190838 | 12 | 180 | 0.0 | 0.0 | 0.00 | 7.54 | 0.00 | 79 | 1003.7 |
| 20260506190338 | 12 | 180 | 0.0 | 0.0 | 0.00 | 7.54 | 0.00 | 79 | 1003.8 |
| 20260506185838 | 12 | 112 | 0.0 | 1.6 | 0.00 | 7.54 | 0.00 | 79 | 1003.7 |
| 20260506185446 | 12 | 112 | 0.0 | 8.0 | 0.00 | 7.54 | 0.00 | 79 | 1003.6 |
| 20260506185338 | 12 | 112 | 0.0 | 8.0 | 0.00 | 7.54 | 0.00 | 79 | 1003.6 |
| 20260506184838 | 12 | 112 | 0.0 | 14.5 | 0.00 | 7.54 | 0.00 | 79 | 1003.7 |
| 20260506184338 | 12 | 135 | 14.5 | 16.1 | 0.00 | 7.54 | 0.00 | 79 | 1003.6 |
| 20260506183838 | 12 | 67 | 14.5 | 16.1 | 0.00 | 7.54 | 0.00 | 79 | 1003.6 |
| 20260506183338 | 12 | 90 | 0.0 | 14.5 | 0.00 | 7.54 | 0.00 | 78 | 1003.4 |
| 20260506182838 | 12 | 112 | 9.7 | 27.4 | 0.00 | 7.54 | 0.00 | 78 | 1003.3 |
| 20260506182415 | 12 | 135 | 9.7 | 14.5 | 0.00 | 7.54 | 0.00 | 78 | 1003.4 |
| 20260506182338 | 12 | 135 | 9.7 | 14.5 | 0.00 | 7.54 | 0.00 | 78 | 1003.4 |
| 20260506181838 | 12 | 157 | 8.0 | 24.1 | 0.00 | 7.54 | 0.00 | 78 | 1003.3 |
| 20260506181338 | 12 | 157 | 16.1 | 16.1 | 0.00 | 7.54 | 0.00 | 78 | 1003.3 |
| 20260506180838 | 13 | 135 | 9.7 | 14.5 | 0.00 | 7.54 | 0.00 | 78 | 1003.3 |
| 20260506180338 | 13 | 157 | 9.7 | 12.9 | 0.00 | 7.54 | 0.00 | 78 | 1003.2 |
| 20260506175838 | 13 | 90 | 6.4 | 9.7 | 0.00 | 7.54 | 0.00 | 78 | 1003.1 |
| 20260506175410 | 13 | 112 | 0.0 | 9.7 | 0.00 | 7.54 | 0.00 | 77 | 1003.3 |
| 20260506175338 | 13 | 112 | 0.0 | 9.7 | 0.00 | 7.54 | 0.00 | 77 | 1003.3 |
| 20260506174838 | 13 | 67 | 0.0 | 9.7 | 0.00 | 7.54 | 0.00 | 77 | 1003.1 |
| 20260506174338 | 13 | 135 | 0.0 | 9.7 | 0.00 | 7.54 | 0.00 | 77 | 1003.1 |
| 20260506173838 | 13 | 135 | 0.0 | 16.1 | 0.00 | 7.54 | 0.00 | 77 | 1003.1 |
| 20260506173338 | 13 | 135 | 12.9 | 12.9 | 0.00 | 7.54 | 0.00 | 76 | 1003.0 |
| 20260506172838 | 13 | 135 | 0.0 | 14.5 | 0.00 | 7.54 | 0.00 | 76 | 1002.9 |
| 20260506172338 | 13 | 135 | 0.0 | 6.4 | 0.00 | 7.54 | 0.00 | 76 | 1002.8 |
| 20260506171838 | 13 | 112 | 0.0 | 9.7 | 0.00 | 7.54 | 0.00 | 76 | 1002.6 |
| 20260506171338 | 13 | 112 | 0.0 | 12.9 | 0.00 | 7.54 | 0.00 | 76 | 1002.6 |
| 20260506170838 | 13 | 112 | 0.0 | 17.7 | 0.00 | 7.54 | 0.00 | 76 | 1002.7 |
| 20260506170338 | 13 | 90 | 0.0 | 22.5 | 0.00 | 7.54 | 0.00 | 76 | 1002.6 |
| 20260506165838 | 13 | 90 | 22.5 | 29.0 | 0.00 | 7.54 | 0.00 | 76 | 1002.5 |
| 20260506165338 | 13 | 112 | 0.0 | 25.7 | 0.00 | 7.54 | 0.00 | 77 | 1002.6 |
| 20260506164838 | 13 | 135 | 16.1 | 17.7 | 0.00 | 7.54 | 0.00 | 77 | 1002.6 |
| 20260506164338 | 13 | 157 | 6.4 | 19.3 | 0.00 | 7.54 | 0.00 | 78 | 1002.6 |
| 20260506163838 | 13 | 157 | 9.7 | 16.1 | 0.00 | 7.54 | 0.00 | 78 | 1002.4 |
| 20260506163338 | 13 | 67 | 0.0 | 19.3 | 0.00 | 7.54 | 0.00 | 78 | 1002.4 |
| 20260506162838 | 13 | 112 | 1.6 | 11.3 | 0.00 | 7.54 | 0.00 | 77 | 1002.5 |
| 20260506162513 | 13 | 112 | 8.0 | 16.1 | 0.00 | 7.54 | 0.00 | 76 | 1002.5 |
| 20260506162338 | 13 | 112 | 6.4 | 16.1 | 0.00 | 7.54 | 0.00 | 76 | 1002.6 |
| 20260506161838 | 13 | 112 | 8.0 | 16.1 | 0.00 | 7.54 | 0.00 | 76 | 1002.5 |
| 20260506161338 | 13 | 90 | 14.5 | 20.9 | 0.00 | 7.54 | 0.00 | 76 | 1002.5 |
| 20260506160838 | 13 | 112 | 0.0 | 17.7 | 0.00 | 7.54 | 0.00 | 76 | 1002.6 |
| 20260506160339 | 13 | 90 | 12.9 | 12.9 | 0.00 | 7.54 | 0.00 | 76 | 1002.6 |
| 20260506155838 | 13 | 135 | 8.0 | 19.3 | 0.00 | 7.54 | 0.00 | 76 | 1002.6 |
| 20260506155338 | 13 | 112 | 12.9 | 12.9 | 0.00 | 7.54 | 0.00 | 76 | 1002.7 |
| 20260506154838 | 13 | 135 | 11.3 | 16.1 | 0.00 | 7.54 | 0.00 | 77 | 1002.6 |
| 20260506154338 | 13 | 112 | 14.5 | 14.5 | 0.00 | 7.54 | 0.00 | 77 | 1002.6 |
| 20260506153838 | 13 | 112 | 0.0 | 11.3 | 0.00 | 7.54 | 0.00 | 78 | 1002.6 |
| 20260506153338 | 13 | 112 | 3.2 | 12.9 | 0.00 | 7.54 | 0.00 | 78 | 1002.6 |
| 20260506152838 | 13 | 112 | 12.9 | 12.9 | 0.00 | 7.54 | 0.00 | 78 | 1002.7 |
| 20260506152338 | 13 | 67 | 6.4 | 16.1 | 0.00 | 7.54 | 0.00 | 78 | 1002.6 |
| 20260506151838 | 13 | 112 | 0.0 | 8.0 | 0.00 | 7.54 | 0.00 | 78 | 1002.8 |
| 20260506151338 | 13 | 112 | 0.0 | 11.3 | 0.00 | 7.54 | 0.00 | 78 | 1002.7 |
| 20260506150838 | 13 | 135 | 11.3 | 14.5 | 0.00 | 7.54 | 0.00 | 78 | 1002.9 |
| 20260506150338 | 13 | 90 | 14.5 | 14.5 | 0.00 | 7.54 | 0.00 | 79 | 1002.9 |
| 20260506145838 | 12 | 112 | 9.7 | 11.3 | 0.00 | 7.54 | 0.00 | 79 | 1002.8 |
| 20260506145338 | 12 | 90 | 11.3 | 14.5 | 0.00 | 7.54 | 0.00 | 79 | 1002.8 |
| 20260506144838 | 12 | 90 | 3.2 | 16.1 | 0.00 | 7.54 | 0.00 | 79 | 1002.8 |
| 20260506144338 | 12 | 90 | 0.0 | 11.3 | 0.00 | 7.54 | 0.00 | 79 | 1002.9 |
| 20260506143838 | 12 | 135 | 0.0 | 8.0 | 0.00 | 7.54 | 0.00 | 79 | 1002.9 |
| 20260506143338 | 12 | 112 | 8.0 | 11.3 | 0.00 | 7.54 | 0.00 | 79 | 1003.0 |
| 20260506142838 | 12 | 157 | 0.0 | 0.0 | 0.00 | 7.54 | 0.00 | 79 | 1003.0 |
| 20260506142338 | 12 | 67 | 0.0 | 0.0 | 0.00 | 7.54 | 0.00 | 79 | 1003.0 |
| 20260506141838 | 12 | 67 | 0.0 | 0.0 | 0.00 | 7.54 | 0.00 | 79 | 1003.1 |
| 20260506141338 | 12 | 90 | 0.0 | 4.8 | 0.00 | 7.54 | 0.00 | 79 | 1003.1 |
| 20260506140838 | 12 | 112 | 0.0 | 6.4 | 0.00 | 7.54 | 0.00 | 79 | 1003.2 |
| 20260506140338 | 12 | 67 | 0.0 | 1.6 | 0.00 | 7.54 | 0.00 | 79 | 1003.4 |
| 20260506135838 | 12 | 157 | 0.0 | 0.0 | 0.05 | 7.54 | 0.00 | 79 | 1003.6 |
| 20260506135338 | 12 | 157 | 0.0 | 0.0 | 0.05 | 7.54 | 0.00 | 79 | 1003.6 |
| 20260506134838 | 12 | 180 | 0.0 | 0.0 | 0.05 | 7.54 | 0.00 | 78 | 1003.7 |
| 20260506134338 | 12 | 67 | 0.0 | 0.0 | 7.24 | 7.54 | 0.00 | 78 | 1003.8 |
| 20260506133838 | 12 | 292 | 0.0 | 0.0 | 7.39 | 7.54 | 0.00 | 78 | 1003.7 |
| 20260506133338 | 12 | 45 | 0.0 | 14.5 | 7.39 | 7.54 | 0.00 | 78 | 1003.7 |
| 20260506132838 | 12 | 45 | 0.0 | 11.3 | 7.39 | 7.54 | 0.00 | 78 | 1003.8 |
| 20260506132409 | 12 | 67 | 0.0 | 11.3 | 7.39 | 7.54 | 0.00 | 79 | 1004.0 |
| 20260506132338 | 12 | 67 | 0.0 | 11.3 | 7.39 | 7.54 | 0.00 | 79 | 1004.0 |
| 20260506131838 | 12 | 45 | 11.3 | 14.5 | 7.39 | 7.54 | 0.00 | 79 | 1004.0 |
| 20260506131338 | 12 | 22 | 3.2 | 9.7 | 7.39 | 7.54 | 0.00 | 79 | 1003.9 |
| 20260506130838 | 12 | 45 | 6.4 | 9.7 | 7.39 | 7.54 | 0.00 | 79 | 1003.8 |
| 20260506130338 | 12 | 67 | 0.0 | 3.2 | 7.34 | 7.49 | 0.00 | 78 | 1003.9 |
| 20260506125838 | 12 | 90 | 0.0 | 0.0 | 7.34 | 7.49 | 0.00 | 78 | 1003.8 |
| 20260506125338 | 12 | 90 | 0.0 | 0.0 | 7.34 | 7.49 | 0.00 | 77 | 1003.8 |
| 20260506124838 | 12 | 180 | 0.0 | 12.9 | 3.51 | 3.66 | 0.00 | 77 | 1004.0 |
| 20260506124338 | 13 | 202 | 9.7 | 17.7 | 0.00 | 0.15 | 0.00 | 77 | 1003.7 |
| 20260506123838 | 13 | 157 | 0.0 | 22.5 | 0.00 | 0.15 | 0.00 | 77 | 1003.6 |
| 20260506123338 | 13 | 112 | 6.4 | 32.2 | 0.00 | 0.15 | 0.00 | 77 | 1003.1 |
| 20260506122838 | 13 | 135 | 19.3 | 32.2 | 0.00 | 0.15 | 0.00 | 76 | 1002.8 |
| 20260506122338 | 13 | 112 | 22.5 | 33.8 | 0.00 | 0.15 | 0.00 | 76 | 1002.6 |
| 20260506121838 | 14 | 67 | 6.4 | 27.4 | 0.00 | 0.15 | 0.00 | 75 | 1002.7 |
| 20260506121338 | 15 | 67 | 27.4 | 38.6 | 0.00 | 0.15 | 0.00 | 74 | 1002.8 |
| 20260506120838 | 15 | 45 | 14.5 | 38.6 | 0.00 | 0.15 | 0.00 | 74 | 1002.8 |
| 20260506120338 | 15 | 135 | 6.4 | 38.6 | 0.00 | 0.15 | 0.00 | 73 | 1002.8 |
| 20260506115838 | 15 | 67 | 33.8 | 37.0 | 0.00 | 0.15 | 0.00 | 73 | 1002.6 |
| 20260506115339 | 15 | 67 | 0.0 | 30.6 | 0.00 | 0.15 | 0.00 | 72 | 1002.7 |
| 20260506114839 | 15 | 90 | 17.7 | 40.2 | 0.00 | 0.15 | 0.00 | 71 | 1002.6 |
| 20260506114338 | 15 | 135 | 8.0 | 32.2 | 0.00 | 0.15 | 0.00 | 71 | 1002.5 |
| 20260506113839 | 15 | 90 | 16.1 | 27.4 | 0.00 | 0.15 | 0.00 | 71 | 1002.6 |
| 20260506113339 | 15 | 67 | 12.9 | 25.7 | 0.00 | 0.15 | 0.00 | 70 | 1002.7 |
| 20260506112839 | 15 | 67 | 9.7 | 35.4 | 0.00 | 0.15 | 0.00 | 70 | 1002.8 |
| 20260506112339 | 16 | 112 | 8.0 | 43.5 | 0.00 | 0.15 | 0.00 | 69 | 1002.8 |
| 20260506111839 | 16 | 112 | 20.9 | 40.2 | 0.00 | 0.15 | 0.00 | 70 | 1002.9 |
| 20260506111339 | 16 | 45 | 0.0 | 20.9 | 0.00 | 0.15 | 0.00 | 72 | 1002.7 |
| 20260506110839 | 15 | 90 | 8.0 | 27.4 | 0.00 | 0.15 | 0.00 | 71 | 1003.0 |
| 20260506110339 | 15 | 135 | 20.9 | 22.5 | 0.00 | 0.15 | 0.00 | 72 | 1003.0 |
| 20260506105839 | 15 | 67 | 22.5 | 24.1 | 0.00 | 0.15 | 0.00 | 73 | 1003.2 |
| 20260506105339 | 14 | 67 | 16.1 | 35.4 | 0.00 | 0.15 | 0.00 | 73 | 1003.3 |
| 20260506104839 | 14 | 157 | 27.4 | 27.4 | 0.00 | 0.15 | 0.00 | 72 | 1003.6 |
| 20260506104339 | 15 | 67 | 11.3 | 22.5 | 0.00 | 0.15 | 0.00 | 72 | 1003.6 |
| 20260506103839 | 14 | 45 | 0.0 | 27.4 | 0.00 | 0.15 | 0.00 | 71 | 1003.5 |
| 20260506103339 | 14 | 90 | 12.9 | 37.0 | 0.00 | 0.15 | 0.00 | 72 | 1003.6 |
| 20260506102839 | 14 | 67 | 4.8 | 24.1 | 0.00 | 0.15 | 0.00 | 73 | 1003.6 |
| 20260506102339 | 15 | 112 | 14.5 | 33.8 | 0.00 | 0.15 | 0.00 | 73 | 1003.6 |
| 20260506101839 | 15 | 112 | 24.1 | 30.6 | 0.00 | 0.15 | 0.00 | 73 | 1003.6 |
| 20260506101339 | 15 | 90 | 6.4 | 25.7 | 0.00 | 0.15 | 0.00 | 73 | 1003.6 |
| 20260506100839 | 15 | 90 | 16.1 | 25.7 | 0.00 | 0.15 | 0.00 | 74 | 1003.7 |
| 20260506100339 | 14 | 112 | 25.7 | 25.7 | 0.00 | 0.15 | 0.00 | 73 | 1003.6 |
| 20260506095839 | 14 | 135 | 16.1 | 25.7 | 0.00 | 0.15 | 0.00 | 73 | 1003.7 |
| 20260506095339 | 13 | 90 | 22.5 | 35.4 | 0.00 | 0.15 | 0.00 | 73 | 1003.7 |
| 20260506094839 | 13 | 90 | 20.9 | 25.7 | 0.00 | 0.15 | 0.00 | 75 | 1003.7 |
| 20260506094339 | 13 | 67 | 16.1 | 22.5 | 0.00 | 0.15 | 0.00 | 76 | 1003.7 |
| 20260506093839 | 14 | 135 | 12.9 | 17.7 | 0.00 | 0.15 | 0.00 | 77 | 1003.9 |
| 20260506093339 | 14 | 112 | 6.4 | 22.5 | 0.00 | 0.15 | 0.00 | 77 | 1003.8 |
| 20260506092839 | 14 | 67 | 4.8 | 22.5 | 0.00 | 0.15 | 0.00 | 77 | 1003.7 |
| 20260506092339 | 14 | 67 | 9.7 | 17.7 | 0.00 | 0.15 | 0.00 | 78 | 1003.7 |
| 20260506091839 | 14 | 67 | 0.0 | 20.9 | 0.00 | 0.15 | 0.00 | 78 | 1003.7 |
| 20260506091339 | 14 | 67 | 6.4 | 12.9 | 0.00 | 0.15 | 0.00 | 79 | 1003.8 |
| 20260506090839 | 13 | 135 | 16.1 | 16.1 | 0.00 | 0.15 | 0.00 | 79 | 1003.8 |
| 20260506090339 | 13 | 135 | 14.5 | 14.5 | 0.00 | 0.15 | 0.00 | 79 | 1003.9 |